Tiempo atmosférico en la estación meteorológica de Valdezcaray, estación de esquí, La Rioja (1630 m.)



Fecha
DESCASC
Temp. máxima en grados centígrados (hora)
DESCASC
Temp. mínima en grados centígrados (hora)
DESCASC
Temp. media en grados centígrados
DESCASC
Racha de viento máxima en m/sg (hora)
DESCASC
Velocidad máxima media en intervalos de 10 minutos(hora)
DESCASC
Precipitaciones diarias en mm
DESCASC
Precipitaciones de 00:00 a 06:00 en mm
DESCASC
Precipitaciones de 06:00 a 12:00 en mm
DESCASC
Precipitaciones de 12:00 a 18:00 en mm
DESCASC
Precipitaciones de 18:00 a 24:00 en mm
DESCASC
02-08-2020 11.7 (00:00) 8.4 (23:30) 10 4.44 (16:50) 2.5 (16:50) 1.6 0.4 0.8 0.4 0
01-08-2020 23.1 (10:10) 11.7 (23:40) 17.4 6.11 (01:40) 5 (01:50) 0 0 0 0 0
31-07-2020 27 (18:20) 17.4 (00:20) 22.2 14.72 (07:00) 8.33 (06:50) 0 0 0 0 0
30-07-2020 28.2 (14:10) 16.7 (00:00) 22.5 24.72 (17:20) 10.83 (17:20) 3 0 0 0.8 2.2
29-07-2020 24.4 (18:40) 11.3 (00:00) 17.8 11.39 (22:00) 8.33 (22:00) 0.6 0.6 0 0 0
28-07-2020 23.4 (04:00) 11.1 (00:00) 17.3 8.89 (00:40) 7.22 (05:30) 0.2 0 0 0 0.2
27-07-2020 29.1 (15:20) 18.3 (00:00) 23.7 13.89 (07:10) 7.78 (01:40) 0 0 0 0 0
26-07-2020 24 (23:59) 11.8 (00:00) 17.9 10 (00:20) 5 (23:59) 0 0 0 0 0
25-07-2020 24.6 (18:10) 12.9 (00:00) 18.8 6.39 (20:10) 4.17 (03:00) 0 0 0 0 0
24-07-2020 18 (17:10) 8.4 (00:00) 13.2 5 (17:00) 3.06 (03:00) 0 0 0 0 0
23-07-2020 21.6 (16:00) 13.6 (00:00) 17.6 6.94 (00:10) 5.83 (00:10) 1 0 0 0 1
22-07-2020 21.5 (17:30) 15.6 (00:00) 18.6 13.61 (10:00) 7.78 (02:30) 0.2 0.2 0 0 0
21-07-2020 25.7 (13:30) 14.3 (00:00) 20 12.5 (21:40) 8.61 (01:00) 5.2 0 0 2.8 2.4
20-07-2020 23.3 (12:10) 18.1 (00:00) 20.7 11.94 (05:30) 8.33 (07:50) 0 0 0 0 0
19-07-2020 24.7 (14:30) 16 (00:00) 20.4 11.39 (22:30) 8.06 (22:10) 0 0 0 0 0
18-07-2020 21.8 (19:30) 6.8 (00:00) 14.3 6.67 (06:40) 5.56 (03:30) 0 0 0 0 0
17-07-2020 16.1 (17:10) 7.7 (00:00) 11.9 7.22 (17:30) 4.44 (02:30) 0 0 0 0 0
16-07-2020 17.8 (15:50) 9.2 (00:00) 13.5 7.22 (03:20) 4.72 (03:40) 0 0 0 0 0
15-07-2020 14.2 (18:40) 4.9 (00:00) 9.5 6.67 (01:10) 3.89 (00:40) 0 0 0 0 0
14-07-2020 15.7 (14:10) 6.7 (00:00) 11.2 9.17 (18:30) 5 (18:30) 0 0 0 0 0
13-07-2020 16.6 (16:30) 7.9 (00:00) 12.3 7.22 (19:30) 4.17 (18:00) 0.2 0 0.2 0 0
12-07-2020 20 (16:20) 10.3 (06:10) 15.2 16.39 (18:40) 11.94 (19:50) 9.4 0 1.2 0.4 7.8
11-07-2020 18.8 (23:59) 7.3 (07:50) 13 8.61 (21:50) 7.5 (23:10) 0.6 0.6 0 0 0
10-07-2020 17.3 (09:40) 9.7 (00:00) 13.5 8.61 (00:40) 5.83 (00:30) 0 0 0 0 0
09-07-2020 22.2 (14:20) 10.2 (18:00) 16.2 18.89 (18:00) 9.72 (18:30) 23.2 0 0 11.8 11.4
08-07-2020 26.1 (15:20) 16.1 (21:30) 21.1 14.44 (21:00) 7.22 (08:50) 0.6 0 0 0 0.6

Gráficas

Temp. máximas Temp. mínimas Temp. medias Precipitaciones Rachas de viento máximas Velocidades máximas media en intervalos de 10 minutos

Datos horarios

Fecha y hora oficial Temperatura (ºC) Velocidad del viento (km/h) Dirección del viento Racha (km/h) Dirección de racha Precipitación (mm) Presión (hPa) Tendencia (hPa) Humedad (%)
2020-08-06 23:00:00 22.6 18 Sudeste 29 Sudeste 0 -- -- 52
2020-08-06 22:00:00 22.8 21 Sudeste 25 Sudeste 0 -- -- 56
2020-08-06 21:00:00 23.7 17 Sudeste 22 Sudeste 0 -- -- 55
2020-08-06 20:00:00 23.1 17 Sudeste 23 Sudeste 0 -- -- 62
2020-08-06 19:00:00 24.9 15 Sudeste 22 Sudeste 0 -- -- 55
2020-08-06 18:00:00 24.2 14 Este 21 Sudeste 0 -- -- 50
2020-08-06 17:00:00 24.4 11 Este 20 Sudeste 0 -- -- 50
2020-08-06 16:00:00 25.5 6 Noroeste 22 Norte 0 -- -- 45
2020-08-06 15:00:00 26.5 10 Norte 24 Noroeste 0 -- -- 37
2020-08-06 14:00:00 25.3 11 Norte 26 Sudoeste 0 -- -- 34
2020-08-06 13:00:00 25.8 10 Noroeste 28 Este 0 -- -- 34
2020-08-06 12:00:00 24.9 8 Este 29 Sudeste 0 -- -- 35
2020-08-06 11:00:00 23.6 13 Sudeste 30 Sudeste 0 -- -- 33
2020-08-06 10:00:00 22.5 22 Sudeste 31 Sudeste 0 -- -- 33
2020-08-06 09:00:00 20.7 25 Sudeste 32 Sudeste 0 -- -- 33
2020-08-06 08:00:00 21 21 Sudeste 29 Sur 0 -- -- 32
2020-08-06 07:00:00 20.1 24 Sur 30 Sur 0 -- -- 35
2020-08-06 06:00:00 19.6 19 Sur 28 Sur 0 -- -- 38
2020-08-06 05:00:00 19.7 11 Sur 27 Sur 0 -- -- 38
2020-08-06 04:00:00 20 23 Sudeste 28 Sur 0 -- -- 35
2020-08-06 03:00:00 19.5 21 Sudeste 26 Sudeste 0 -- -- 36
2020-08-06 02:00:00 18.3 20 Sudeste 24 Sudeste 0 -- -- 36
2020-08-06 01:00:00 19.3 15 Sudeste 24 Este 0 -- -- 31
2020-08-06 00:00:00 18.9 17 Este 21 Este 0 -- -- 30
2020-08-05 23:00:00 19.3 14 Sudeste 18 Este 0 -- -- 27
2020-08-05 22:00:00 18.1 14 Este 18 Este 0 -- -- 42
2020-08-05 21:00:00 21.6 8 Este 15 Sudeste 0 -- -- 26
2020-08-05 20:00:00 23.1 6 Sudeste 18 Oeste 0 -- -- 29
2020-08-05 19:00:00 23.7 9 Noroeste 22 Oeste 0 -- -- 34
2020-08-05 18:00:00 23.8 10 Noroeste 18 Noroeste 0 -- -- 35
2020-08-05 17:00:00 23.6 10 Noroeste 21 Noroeste 0 -- -- 35
2020-08-05 16:00:00 23.1 11 Noroeste 19 Noroeste 0 -- -- 36
2020-08-05 15:00:00 22.5 9 Noroeste 15 Noroeste 0 -- -- 35
2020-08-05 14:00:00 21.6 7 Noroeste 13 Noroeste 0 -- -- 30
2020-08-05 13:00:00 20.6 6 Noroeste 10 Noroeste 0 -- -- 26
2020-08-05 12:00:00 19.9 5 Noroeste 7 Noroeste 0 -- -- 19
2020-08-05 11:00:00 19.6 3 Noroeste 6 Norte 0 -- -- 16
2020-08-05 10:00:00 18.3 2 Nordeste 9 Nordeste 0 -- -- 27
2020-08-05 09:00:00 13.9 7 Este 14 Este 0 -- -- 36
2020-08-05 08:00:00 13.5 7 Sudeste 17 Sudeste 0 -- -- 32
2020-08-05 07:00:00 15.5 12 Sudeste 17 Sudeste 0 -- -- 23
2020-08-05 06:00:00 15.4 11 Sudeste 17 Sudeste 0 -- -- 22
2020-08-05 05:00:00 15.5 14 Sudeste 18 Sudeste 0 -- -- 22
2020-08-05 04:00:00 14.5 13 Sudeste 16 Sudeste 0 -- -- 18
2020-08-05 03:00:00 14.4 12 Sudeste 17 Sudeste 0 -- -- 14
2020-08-05 02:00:00 13.7 9 Sudeste 15 Sudeste 0 -- -- 17
2020-08-05 01:00:00 13.9 11 Sudeste 15 Sur 0 -- -- 17
2020-08-05 00:00:00 12.8 7 Sudeste 15 Este 0 -- -- 25
2020-08-04 23:00:00 12.8 6 Sudeste 12 Sudeste 0 -- -- 39
2020-08-04 22:00:00 11.6 2 Sudeste 8 Noroeste 0 -- -- 84
2020-08-04 21:00:00 14.1 5 Noroeste 13 Noroeste 0 -- -- 76
2020-08-04 20:00:00 15.3 8 Noroeste 15 Noroeste 0 -- -- 73
2020-08-04 19:00:00 16.1 8 Noroeste 17 Noroeste 0 -- -- 71
2020-08-04 18:00:00 16.7 10 Noroeste 18 Noroeste 0 -- -- 70
2020-08-04 17:00:00 16.5 10 Noroeste 20 Oeste 0 -- -- 71
2020-08-04 16:00:00 16.6 11 Noroeste 23 Noroeste 0 -- -- 69
2020-08-04 15:00:00 15.8 8 Noroeste 16 Noroeste 0 -- -- 73
2020-08-04 14:00:00 15.5 8 Noroeste 15 Noroeste 0 -- -- 75
2020-08-04 13:00:00 13.8 9 Noroeste 15 Noroeste 0 -- -- 80
2020-08-04 12:00:00 12.1 6 Noroeste 12 Noroeste 0 -- -- 87
2020-08-04 11:00:00 11.7 3 Nordeste 11 Sudoeste 0 -- -- 83
2020-08-04 10:00:00 8.9 4 Noroeste 6 Norte 0 -- -- 98
2020-08-04 09:00:00 7.6 0 Calma 4 Este 0 -- -- 100
2020-08-04 08:00:00 8 2 Nordeste 16 Este 0 -- -- 94
2020-08-04 07:00:00 8.5 9 Este 20 Este 0 -- -- 92
2020-08-04 06:00:00 8.3 6 Sudeste 19 Este 0 -- -- 97
2020-08-04 05:00:00 8.6 3 Sudeste 19 Sudeste 0 -- -- 95
2020-08-04 04:00:00 9.7 6 Norte 26 Este 0 -- -- 93
2020-08-04 03:00:00 9.9 7 Norte 19 Nordeste 0 -- -- 91
2020-08-04 02:00:00 9.6 4 Nordeste 18 Nordeste 0 -- -- 89
2020-08-04 01:00:00 9.4 4 Nordeste 10 Norte 0 -- -- 87
2020-08-04 00:00:00 10 4 Nordeste 9 Nordeste 0 -- -- 89
2020-08-03 23:00:00 9.2 5 Sudeste 9 Oeste 0 -- -- 91
2020-08-03 22:00:00 10.2 6 Este 11 Este 0 -- -- 88
2020-08-03 21:00:00 12.3 7 Noroeste 15 Noroeste 0 -- -- 82
2020-08-03 20:00:00 14.1 8 Noroeste 17 Noroeste 0 -- -- 75
2020-08-03 19:00:00 14.8 11 Noroeste 23 Noroeste 0 -- -- 72
2020-08-03 18:00:00 15.5 13 Noroeste 22 Noroeste 0 -- -- 70
2020-08-03 17:00:00 15.2 13 Noroeste 24 Noroeste 0 -- -- 70
2020-08-03 16:00:00 14.8 8 Noroeste 21 Noroeste 0 -- -- 68
2020-08-03 15:00:00 14 10 Noroeste 18 Noroeste 0 -- -- 66
2020-08-03 14:00:00 13.5 8 Noroeste 15 Noroeste 0 -- -- 71
2020-08-03 13:00:00 13 6 Noroeste 13 Noroeste 0 -- -- 67
2020-08-03 12:00:00 11.6 10 Noroeste 15 Noroeste 0 -- -- 75
2020-08-03 11:00:00 12.2 5 Noroeste 11 Noroeste 0 -- -- 65
2020-08-03 10:00:00 11.5 2 Nordeste 6 Este 0 -- -- 60
2020-08-03 09:00:00 7.2 3 Norte 13 Sudeste 0 -- -- 81
2020-08-03 08:00:00 5.5 3 Este 14 Este 0 -- -- 86
2020-08-03 07:00:00 6.2 6 Sudeste 9 Sudeste 0 -- -- 96
2020-08-03 06:00:00 5.9 3 Este 14 Este 0 -- -- 86
2020-08-03 05:00:00 8.6 12 Sudeste 26 Sudeste 0 -- -- 74
2020-08-03 04:00:00 7.5 8 Este 23 Este 0 -- -- 95
2020-08-03 03:00:00 8.4 0 Calma 21 Este 0 -- -- 83
2020-08-03 02:00:00 8 11 Sudeste 22 Sudeste 0 -- -- 95
2020-08-03 01:00:00 8.5 6 Oeste 16 Norte 0 -- -- 100
2020-08-03 00:00:00 8.5 3 Nordeste 11 Norte 0 -- -- 100
2020-08-02 23:00:00 8.6 6 Norte 15 Norte 0 -- -- 100
2020-08-02 22:00:00 9 8 Norte 13 Norte 0 -- -- 100
2020-08-02 21:00:00 9.6 3 Noroeste 10 Noroeste 0 -- -- 100
2020-08-02 20:00:00 9.9 4 Norte 13 Norte 0 -- -- 100
2020-08-02 19:00:00 10.4 8 Noroeste 14 Noroeste 0 -- -- 100
2020-08-02 18:00:00 10.3 5 Noroeste 12 Noroeste 0 -- -- 100
2020-08-02 17:00:00 10.5 6 Oeste 16 Oeste 0.2 -- -- 100
2020-08-02 16:00:00 10.5 5 Noroeste 12 Oeste 0 -- -- 100
2020-08-02 15:00:00 10.7 8 Noroeste 13 Noroeste 0 -- -- 100
2020-08-02 14:00:00 10.7 5 Noroeste 9 Noroeste 0.2 -- -- 100
2020-08-02 13:00:00 10.6 7 Noroeste 11 Noroeste 0 -- -- 100
2020-08-02 12:00:00 10.5 4 Noroeste 10 Noroeste 0.4 -- -- 100
2020-08-02 11:00:00 10.6 5 Noroeste 12 Noroeste 0.2 -- -- 100
2020-08-02 10:00:00 10.7 6 Noroeste 10 Noroeste 0 -- -- 100
2020-08-02 09:00:00 10.6 0 Calma 7 Noroeste 0 -- -- 100
2020-08-02 08:00:00 10.2 5 Nordeste 9 Nordeste 0.2 -- -- 100
2020-08-02 07:00:00 10.2 4 Este 8 Sudeste 0 -- -- 100
2020-08-02 06:00:00 10.6 3 Noroeste 7 Noroeste 0.2 -- -- 100
2020-08-02 05:00:00 10.7 4 Noroeste 8 Noroeste 0.2 -- -- 100
2020-08-02 04:00:00 11.1 0 Calma 9 Sur 0 -- -- 100
2020-08-02 03:00:00 11.3 3 Nordeste 12 Noroeste 0 -- -- 100
2020-08-02 02:00:00 11.5 3 Nordeste 9 Este 0 -- -- 98
2020-08-02 01:00:00 11.6 3 Sudeste 9 Sur 0 -- -- 100
2020-08-02 00:00:00 11.7 5 Norte 12 Noroeste 0 -- -- 100
2020-08-01 23:00:00 11.8 4 Este 12 Este 0 -- -- 100
2020-08-01 22:00:00 12.4 5 Sudeste 9 Oeste 0 -- -- 100
2020-08-01 21:00:00 12.7 4 Noroeste 9 Noroeste 0 -- -- 100
2020-08-01 20:00:00 13.3 4 Noroeste 13 Noroeste 0 -- -- 99
2020-08-01 19:00:00 14.2 7 Noroeste 12 Noroeste 0 -- -- 95
2020-08-01 18:00:00 15.6 9 Noroeste 17 Noroeste 0 -- -- 87
2020-08-01 17:00:00 17.6 8 Noroeste 14 Norte 0 -- -- 82
2020-08-01 16:00:00 17.6 8 Noroeste 14 Norte 0 -- -- 87
2020-08-01 15:00:00 18.7 5 Noroeste 16 Noroeste 0 -- -- 82
2020-08-01 14:00:00 17.1 4 Noroeste 12 Noroeste 0 -- -- 89
2020-08-01 13:00:00 16.2 4 Noroeste 16 Noroeste 0 -- -- 91
2020-08-01 12:00:00 16.9 4 Norte 14 Noroeste 0 -- -- 88
2020-08-01 11:00:00 18.6 4 Norte 13 Noroeste 0 -- -- 76
2020-08-01 10:00:00 22.8 6 Oeste 15 Sur 0 -- -- 34
2020-08-01 09:00:00 21.1 8 Sudoeste 17 Sur 0 -- -- 39
2020-08-01 08:00:00 17.8 3 Sudeste 15 Sur 0 -- -- 41
2020-08-01 07:00:00 16.5 4 Sur 14 Sudeste 0 -- -- 52
2020-08-01 06:00:00 12.5 8 Sudoeste 17 Sur 0 -- -- 94
2020-08-01 05:00:00 19.5 12 Sur 19 Sudeste 0 -- -- 33
2020-08-01 04:00:00 19.8 15 Sur 20 Sur 0 -- -- 34
2020-08-01 03:00:00 20.1 16 Sur 19 Sur 0 -- -- 33
2020-08-01 02:00:00 20.3 16 Sudeste 22 Sudeste 0 -- -- 36
2020-08-01 01:00:00 21 12 Sur 20 Sur 0 -- -- 33
2020-08-01 00:00:00 21.1 14 Sur 20 Sur 0 -- -- 33
2020-07-31 23:00:00 21.4 17 Sudeste 21 Sudeste 0 -- -- 37
2020-07-31 22:00:00 23.3 14 Sudeste 19 Sur 0 -- -- 30
2020-07-31 21:00:00 25.8 5 Este 15 Noroeste 0 -- -- 30
2020-07-31 20:00:00 26.2 9 Norte 20 Noroeste 0 -- -- 29
2020-07-31 19:00:00 26.4 12 Noroeste 36 Noroeste 0 -- -- 33
2020-07-31 18:00:00 26.4 20 Norte 40 Noroeste 0 -- -- 34
2020-07-31 17:00:00 26.2 15 Norte 29 Norte 0 -- -- 33
2020-07-31 16:00:00 25.8 16 Norte 29 Noroeste 0 -- -- 32
2020-07-31 15:00:00 24.8 10 Noroeste 19 Noroeste 0 -- -- 49
2020-07-31 14:00:00 24.1 8 Noroeste 19 Noroeste 0 -- -- 50
2020-07-31 13:00:00 23.7 9 Norte 29 Noroeste 0 -- -- 48
2020-07-31 12:00:00 23.1 10 Norte 30 Norte 0 -- -- 46
2020-07-31 11:00:00 22.8 4 Norte 24 Sudeste 0 -- -- 47
2020-07-31 10:00:00 21.9 10 Sudeste 25 Norte 0 -- -- 47
2020-07-31 09:00:00 20.9 10 Sudeste 46 Sur 0 -- -- 47
2020-07-31 08:00:00 20.6 27 Sudeste 52 Sur 0 -- -- 48
2020-07-31 07:00:00 21.4 29 Sudeste 53 Sur 0 -- -- 39
2020-07-31 06:00:00 21.2 22 Sudeste 44 Sur 0 -- -- 44
2020-07-31 05:00:00 20.9 18 Sudeste 40 Sudeste 0 -- -- 46
2020-07-31 04:00:00 20.5 21 Sudeste 46 Sur 0 -- -- 44
2020-07-31 03:00:00 20.6 19 Sudeste 49 Sur 0 -- -- 44
2020-07-31 02:00:00 20.2 14 Este 42 Este 0 -- -- 45
2020-07-31 01:00:00 20.6 22 Este 44 Este 0 -- -- 44
2020-07-31 00:00:00 18.1 25 Sudeste 36 Sudeste 0 -- -- 61
2020-07-30 23:00:00 17.6 6 Nordeste 52 Este 0 -- -- 64
2020-07-30 22:00:00 17.8 25 Sudeste 40 Sudeste 1.2 -- -- 63
2020-07-30 21:00:00 20.5 8 Este 59 Este 1 -- -- 50
2020-07-30 20:00:00 22.2 29 Sudeste 53 Sudeste 0 -- -- 41
2020-07-30 19:00:00 19.8 33 Sudeste 53 Sudeste 0 -- -- 49
2020-07-30 18:00:00 19.8 24 Este 89 Sudeste 0.4 -- -- 50
2020-07-30 17:00:00 21.7 10 Nordeste 57 Sur 0.4 -- -- 40
2020-07-30 16:00:00 21.8 27 Sudeste 83 Sur 0 -- -- 42
2020-07-30 15:00:00 20.7 24 Sudeste 73 Sur 0 -- -- 43
2020-07-30 14:00:00 27.6 11 Oeste 32 Sudeste 0 -- -- 33
2020-07-30 13:00:00 27.2 8 Nordeste 38 Sudeste 0 -- -- 35
2020-07-30 12:00:00 25.7 19 Sudeste 38 Sudeste 0 -- -- 40
2020-07-30 11:00:00 25.8 12 Este 33 Sudeste 0 -- -- 38
2020-07-30 10:00:00 24.2 20 Este 36 Sudeste 0 -- -- 41
2020-07-30 09:00:00 22.6 22 Sudeste 35 Sudeste 0 -- -- 46
2020-07-30 08:00:00 22.4 22 Sudeste 36 Sudeste 0 -- -- 45
2020-07-30 07:00:00 22.1 28 Sudeste 40 Sudeste 0 -- -- 51
2020-07-30 06:00:00 22.4 20 Sudeste 36 Sur 0 -- -- 50
2020-07-30 05:00:00 21.9 19 Sudeste 41 Sur 0 -- -- 46
2020-07-30 04:00:00 22.5 23 Sur 36 Sudeste 0 -- -- 37
2020-07-30 03:00:00 22.4 20 Sudeste 37 Sudeste 0 -- -- 33
2020-07-30 02:00:00 23 12 Este 27 Sudeste 0 -- -- 33
2020-07-30 01:00:00 22.9 8 Sudeste 22 Este 0 -- -- 35
2020-07-30 00:00:00 23.4 13 Sudeste 27 Este 0 -- -- 35
2020-07-29 23:00:00 21.6 18 Sudeste 41 Sur 0 -- -- 43
2020-07-29 22:00:00 21.2 30 Sur 41 Sur 0 -- -- 51
2020-07-29 21:00:00 21.1 13 Sudeste 29 Sur 0 -- -- 71
2020-07-29 20:00:00 22.4 10 Sudeste 18 Sur 0 -- -- 65
2020-07-29 19:00:00 22.5 11 Este 18 Sudeste 0 -- -- 69
2020-07-29 18:00:00 23.8 9 Noroeste 16 Noroeste 0 -- -- 57
2020-07-29 17:00:00 23.7 8 Noroeste 15 Noroeste 0 -- -- 60
2020-07-29 16:00:00 23.2 8 Noroeste 14 Noroeste 0 -- -- 55
2020-07-29 15:00:00 23.2 6 Noroeste 12 Noroeste 0 -- -- 53
2020-07-29 14:00:00 22.5 6 Noroeste 10 Noroeste 0 -- -- 56
2020-07-29 13:00:00 21.9 5 Noroeste 9 Norte 0 -- -- 62
2020-07-29 12:00:00 21.9 4 Noroeste 7 Norte 0 -- -- 60
2020-07-29 11:00:00 21.1 4 Noroeste 6 Norte 0 -- -- 61
2020-07-29 10:00:00 20.8 3 Este 9 Este 0 -- -- 63
2020-07-29 09:00:00 17.5 4 Este 7 Este 0 -- -- 76
2020-07-29 08:00:00 16.5 3 Sudeste 9 Sudeste 0 -- -- 81
2020-07-29 07:00:00 15.8 5 Sudeste 10 Sudeste 0 -- -- 87
2020-07-29 06:00:00 12.9 4 Sudeste 8 Sudeste 0 -- -- 100
2020-07-29 05:00:00 11.8 5 Sudeste 9 Sur 0 -- -- 100
2020-07-29 04:00:00 11.7 0 Calma 5 Noroeste 0.2 -- -- 100
2020-07-29 03:00:00 12.2 0 Calma 5 Norte 0 -- -- 100
2020-07-29 02:00:00 12.3 0 Calma 4 Este 0.2 -- -- 100
2020-07-29 01:00:00 13 3 Noroeste 6 Norte 0.2 -- -- 100
2020-07-29 00:00:00 13.4 0 Calma 6 Noroeste 0.2 -- -- 100
2020-07-28 23:00:00 13.7 3 Norte 6 Noroeste 0 -- -- 100
2020-07-28 22:00:00 13.8 4 Noroeste 7 Noroeste 0 -- -- 100
2020-07-28 21:00:00 14 4 Noroeste 11 Noroeste 0 -- -- 100
2020-07-28 20:00:00 14.3 7 Noroeste 12 Noroeste 0 -- -- 100
2020-07-28 19:00:00 14.8 4 Noroeste 8 Sudeste 0 -- -- 98
2020-07-28 18:00:00 14.4 5 Noroeste 9 Oeste 0 -- -- 99
2020-07-28 17:00:00 15.5 6 Noroeste 11 Noroeste 0 -- -- 95
2020-07-28 16:00:00 15.2 3 Noroeste 13 Noroeste 0 -- -- 95
2020-07-28 15:00:00 16.8 7 Noroeste 14 Norte 0 -- -- 89
2020-07-28 14:00:00 15.9 6 Noroeste 10 Noroeste 0 -- -- 92
2020-07-28 13:00:00 14.9 5 Noroeste 11 Noroeste 0 -- -- 94
2020-07-28 12:00:00 14 5 Noroeste 9 Norte 0 -- -- 97
2020-07-28 11:00:00 12.9 4 Noroeste 10 Noroeste 0 -- -- 99
2020-07-28 10:00:00 12.3 3 Noroeste 9 Noroeste 0 -- -- 100
2020-07-28 09:00:00 11.5 0 Calma 7 Noroeste 0 -- -- 100
2020-07-28 08:00:00 11.1 3 Norte 10 Sur 0 -- -- 99
2020-07-28 07:00:00 12.8 5 Sudoeste 22 Sur 0 -- -- 95
2020-07-28 06:00:00 21.6 22 Sudeste 30 Sudeste 0 -- -- 45
2020-07-28 05:00:00 18.7 6 Sudeste 28 Sur 0 -- -- 51
2020-07-28 04:00:00 23.4 23 Sudeste 31 Sur 0 -- -- 37
2020-07-28 03:00:00 21.9 25 Sudeste 32 Sudeste 0 -- -- 52
2020-07-28 02:00:00 17.5 2 Nordeste 30 Sur 0 -- -- 76
2020-07-28 01:00:00 21.1 17 Sur 32 Nordeste 0 -- -- 58
2020-07-28 00:00:00 22 15 Sur 35 Sudeste 0 -- -- 55
2020-07-27 23:00:00 22.4 20 Sudeste 31 Sudeste 0 -- -- 54
2020-07-27 22:00:00 20.3 7 Sudeste 20 Este 0 -- -- 68
2020-07-27 21:00:00 20.4 6 Sudoeste 13 Noroeste 0 -- -- 78
2020-07-27 20:00:00 26.1 9 Oeste 35 Sudeste 0 -- -- 42
2020-07-27 19:00:00 25.2 8 Este 24 Sudeste 0 -- -- 57
2020-07-27 18:00:00 26.6 6 Noroeste 19 Noroeste 0 -- -- 55
2020-07-27 17:00:00 27.7 11 Noroeste 22 Noroeste 0 -- -- 51
2020-07-27 16:00:00 27.7 6 Oeste 26 Noroeste 0 -- -- 47
2020-07-27 15:00:00 27.6 7 Noroeste 20 Noroeste 0 -- -- 47
2020-07-27 14:00:00 26.5 8 Noroeste 20 Norte 0 -- -- 50
2020-07-27 13:00:00 27.1 10 Nordeste 22 Nordeste 0 -- -- 30
2020-07-27 12:00:00 26 10 Norte 21 Norte 0 -- -- 32
2020-07-27 09:00:00 -- -- -- -- -- -- -- -- --
2020-07-27 08:00:00 23.6 18 Sudeste 50 Sur 0 -- -- 32
2020-07-27 07:00:00 23.4 24 Sudeste 49 Sur 0 -- -- 33
2020-07-27 06:00:00 22.9 27 Sudeste 41 Sudeste 0 -- -- 33
2020-07-27 05:00:00 22.9 15 Sudeste 29 Sudeste 0 -- -- 29
2020-07-27 04:00:00 22.5 8 Sur 36 Sur 0 -- -- 30
2020-07-27 03:00:00 23 19 Sudeste 46 Sur 0 -- -- 28
2020-07-27 02:00:00 23.8 25 Sudeste 42 Sudeste 0 -- -- 25
2020-07-27 01:00:00 23.3 20 Sudeste 40 Sudeste 0 -- -- 25
2020-07-27 00:00:00 24 18 Sudeste 31 Sudeste 0 -- -- 23
2020-07-26 23:00:00 21.4 5 Nordeste 13 Nordeste 0 -- -- 30
2020-07-26 22:00:00 21 3 Sudeste 12 Nordeste 0 -- -- 39
2020-07-26 21:00:00 22.6 4 Norte 12 Noroeste 0 -- -- 58
2020-07-26 20:00:00 23.4 4 Noroeste 14 Norte 0 -- -- 57
2020-07-26 19:00:00 23.2 6 Noroeste 13 Oeste 0 -- -- 57
2020-07-26 18:00:00 22.4 7 Noroeste 14 Noroeste 0 -- -- 59
2020-07-26 17:00:00 22.2 9 Noroeste 15 Noroeste 0 -- -- 58
2020-07-26 16:00:00 22.1 6 Noroeste 18 Noroeste 0 -- -- 59
2020-07-26 15:00:00 22.4 7 Noroeste 15 Noroeste 0 -- -- 59
2020-07-26 14:00:00 19.9 10 Noroeste 17 Norte 0 -- -- 67
2020-07-26 13:00:00 18.5 8 Noroeste 14 Noroeste 0 -- -- 75
2020-07-26 12:00:00 17.4 4 Noroeste 12 Noroeste 0 -- -- 74
2020-07-26 11:00:00 17 5 Norte 12 Oeste 0 -- -- 69
2020-07-26 10:00:00 15.1 5 Norte 12 Este 0 -- -- 75
2020-07-26 09:00:00 13.3 3 Este 13 Nordeste 0 -- -- 70
2020-07-26 08:00:00 12.9 4 Nordeste 16 Nordeste 0 -- -- 72
2020-07-26 07:00:00 13.9 3 Sudeste 14 Este 0 -- -- 61
2020-07-26 06:00:00 13.3 4 Sur 10 Este 0 -- -- 76
2020-07-26 05:00:00 13.4 4 Nordeste 10 Noroeste 0 -- -- 77
2020-07-26 04:00:00 13.9 4 Norte 13 Noroeste 0 -- -- 80
2020-07-26 03:00:00 12.2 4 Nordeste 18 Sur 0 -- -- 89
2020-07-26 02:00:00 12.2 5 Oeste 14 Sur 0 -- -- 98
2020-07-26 01:00:00 13.1 5 Sur 36 Este 0 -- -- 97
2020-07-26 00:00:00 15.4 3 Norte 15 Este 0 -- -- 81
2020-07-25 23:00:00 15.1 5 Este 12 Este 0 -- -- 85
2020-07-25 22:00:00 15.5 0 Calma 14 Noroeste 0 -- -- 86
2020-07-25 21:00:00 20 3 Sudeste 23 Noroeste 0 -- -- 69
2020-07-25 20:00:00 24.1 8 Noroeste 21 Noroeste 0 -- -- 40
2020-07-25 19:00:00 24.1 9 Noroeste 19 Noroeste 0 -- -- 44
2020-07-25 18:00:00 24.3 10 Noroeste 21 Noroeste 0 -- -- 43
2020-07-25 17:00:00 23.4 12 Noroeste 18 Oeste 0 -- -- 50
2020-07-25 16:00:00 22.6 8 Noroeste 20 Noroeste 0 -- -- 53
2020-07-25 15:00:00 22.1 8 Noroeste 18 Oeste 0 -- -- 53
2020-07-25 14:00:00 22.5 6 Nordeste 13 Nordeste 0 -- -- 47
2020-07-25 13:00:00 21.1 6 Noroeste 13 Noroeste 0 -- -- 52
2020-07-25 12:00:00 21.8 3 Este 13 Nordeste 0 -- -- 45
2020-07-25 11:00:00 19.3 6 Noroeste 19 Noroeste 0 -- -- 50
2020-07-25 10:00:00 19.8 7 Sudoeste 18 Sudoeste 0 -- -- 50
2020-07-25 09:00:00 16.5 4 Este 13 Noroeste 0 -- -- 55
2020-07-25 08:00:00 15.2 5 Sudeste 11 Sudeste 0 -- -- 50
2020-07-25 07:00:00 14.5 5 Sur 15 Sur 0 -- -- 52
2020-07-25 06:00:00 15 11 Sudeste 17 Sudeste 0 -- -- 46
2020-07-25 05:00:00 14.9 10 Sudeste 13 Sudeste 0 -- -- 45
2020-07-25 04:00:00 13.4 10 Este 17 Este 0 -- -- 50
2020-07-25 03:00:00 14 15 Este 20 Este 0 -- -- 34
2020-07-25 02:00:00 13.8 8 Sudeste 14 Sudeste 0 -- -- 38
2020-07-25 01:00:00 13.4 5 Este 14 Sudeste 0 -- -- 46
2020-07-25 00:00:00 13.8 7 Sudeste 17 Este 0 -- -- 44
2020-07-24 23:00:00 13.4 5 Sudeste 12 Este 0 -- -- 57
2020-07-24 22:00:00 14.6 4 Sur 9 Sudeste 0 -- -- 56
2020-07-24 21:00:00 15.2 5 Noroeste 10 Noroeste 0 -- -- 79
2020-07-24 20:00:00 16.4 7 Noroeste 14 Noroeste 0 -- -- 74
2020-07-24 19:00:00 16.7 10 Noroeste 18 Noroeste 0 -- -- 72
2020-07-24 18:00:00 17.6 8 Noroeste 15 Noroeste 0 -- -- 70
2020-07-24 17:00:00 17.7 10 Noroeste 18 Noroeste 0 -- -- 70
2020-07-24 16:00:00 17.5 9 Noroeste 17 Noroeste 0 -- -- 74
2020-07-24 15:00:00 16.8 8 Noroeste 15 Noroeste 0 -- -- 77
2020-07-24 14:00:00 16 7 Noroeste 14 Noroeste 0 -- -- 84
2020-07-24 13:00:00 13.5 8 Noroeste 17 Noroeste 0 -- -- 91
2020-07-24 12:00:00 12.6 3 Noroeste 9 Noroeste 0 -- -- 96
2020-07-24 11:00:00 12.3 5 Noroeste 10 Noroeste 0 -- -- 91
2020-07-24 10:00:00 12.4 3 Nordeste 9 Noroeste 0 -- -- 84
2020-07-24 09:00:00 9.2 0 Calma 6 Sudeste 0 -- -- 95
2020-07-24 08:00:00 8.7 3 Este 6 Sudeste 0 -- -- 97
2020-07-24 07:00:00 8.6 3 Sudeste 5 Sudeste 0 -- -- 99
2020-07-24 06:00:00 9.2 4 Sudeste 11 Sudeste 0 -- -- 99
2020-07-24 05:00:00 9.5 4 Este 13 Sur 0 -- -- 98
2020-07-24 04:00:00 12.7 3 Sudeste 18 Sudeste 0 -- -- 61
2020-07-24 03:00:00 15.3 11 Sudeste 16 Sudeste 0 -- -- 50
2020-07-24 02:00:00 13.3 10 Este 17 Este 0 -- -- 77
2020-07-24 01:00:00 12.9 2 Sudeste 12 Sur 0 -- -- 98
2020-07-24 00:00:00 14 5 Norte 19 Sudeste 1 -- -- 97
2020-07-23 23:00:00 14 3 Oeste 8 Noroeste 0 -- -- 99
2020-07-23 22:00:00 14.6 5 Noroeste 10 Noroeste 0 -- -- 98
2020-07-23 21:00:00 16.4 6 Noroeste 12 Noroeste 0 -- -- 90
2020-07-23 20:00:00 18.9 7 Noroeste 16 Noroeste 0 -- -- 76
2020-07-23 19:00:00 19.7 10 Noroeste 20 Noroeste 0 -- -- 74
2020-07-23 18:00:00 20.2 8 Noroeste 19 Noroeste 0 -- -- 73
2020-07-23 17:00:00 20 11 Noroeste 19 Noroeste 0 -- -- 71
2020-07-23 16:00:00 21.6 9 Noroeste 17 Noroeste 0 -- -- 64
2020-07-23 15:00:00 21.3 10 Noroeste 21 Noroeste 0 -- -- 69
2020-07-23 14:00:00 20.3 9 Noroeste 18 Noroeste 0 -- -- 71
2020-07-23 13:00:00 20.4 9 Noroeste 17 Noroeste 0 -- -- 66
2020-07-23 12:00:00 20.2 5 Noroeste 10 Noroeste 0 -- -- 62
2020-07-23 11:00:00 20 6 Noroeste 10 Noroeste 0 -- -- 59
2020-07-23 10:00:00 20.5 4 Nordeste 12 Este 0 -- -- 49
2020-07-23 09:00:00 16.5 8 Este 14 Este 0 -- -- 62
2020-07-23 08:00:00 16.9 8 Sudeste 13 Sur 0 -- -- 59
2020-07-23 07:00:00 16.1 9 Sudeste 12 Sudeste 0 -- -- 55
2020-07-23 06:00:00 16.1 8 Sur 14 Sur 0 -- -- 54
2020-07-23 05:00:00 16.1 4 Sudeste 15 Sudeste 0 -- -- 57
2020-07-23 04:00:00 16.8 10 Sudeste 17 Sudeste 0 -- -- 64
2020-07-23 03:00:00 15.7 3 Este 19 Sudeste 0 -- -- 70
2020-07-23 02:00:00 17.2 15 Sudeste 24 Sudeste 0 -- -- 63
2020-07-23 01:00:00 17.7 18 Sudeste 25 Sudeste 0 -- -- 61
2020-07-23 00:00:00 18.3 19 Sudeste 23 Sudeste 0 -- -- 60
2020-07-22 23:00:00 18.1 17 Sudeste 19 Sudeste 0 -- -- 67
2020-07-22 22:00:00 18.2 8 Sudeste 12 Sudeste 0 -- -- 74
2020-07-22 21:00:00 20.1 6 Este 14 Nordeste 0 -- -- 68
2020-07-22 20:00:00 21.5 6 Sudeste 16 Sudeste 0 -- -- 57
2020-07-22 19:00:00 20.2 6 Este 17 Sudeste 0 -- -- 63
2020-07-22 18:00:00 21.3 9 Este 23 Sudeste 0 -- -- 57
2020-07-22 17:00:00 21.3 11 Sur 24 Sur 0 -- -- 61
2020-07-22 16:00:00 19.3 2 Sudeste 12 Noroeste 0 -- -- 75
2020-07-22 15:00:00 19.9 2 Noroeste 14 Noroeste 0 -- -- 75
2020-07-22 14:00:00 20 7 Noroeste 13 Noroeste 0 -- -- 73
2020-07-22 13:00:00 19.7 8 Noroeste 23 Sudeste 0 -- -- 62
2020-07-22 12:00:00 20.9 10 Sudeste 24 Sudeste 0 -- -- 50
2020-07-22 11:00:00 18.4 6 Noroeste 47 Sur 0 -- -- 60
2020-07-22 10:00:00 18.2 22 Sur 49 Sur 0 -- -- 46
2020-07-22 09:00:00 17.3 23 Sudeste 32 Sudeste 0 -- -- 61
2020-07-22 08:00:00 16.9 3 Sur 36 Sur 0 -- -- 64
2020-07-22 07:00:00 17.5 14 Sur 43 Sur 0 -- -- 58
2020-07-22 06:00:00 18.8 9 Nordeste 32 Sur 0 -- -- 49
2020-07-22 05:00:00 18.4 15 Sudeste 35 Sur 0 -- -- 54
2020-07-22 04:00:00 17.4 24 Sudeste 39 Sudeste 0 -- -- 60
2020-07-22 03:00:00 18.1 21 Sudeste 48 Este 0 -- -- 56
2020-07-22 02:00:00 17.4 26 Sudeste 40 Sudeste 0 -- -- 61
2020-07-22 01:00:00 16.5 25 Sur 36 Sur 0.2 -- -- 65
2020-07-22 00:00:00 15.6 19 Sur 31 Sur 0.8 -- -- 73
2020-07-21 23:00:00 17.7 20 Sur 36 Sur 0 -- -- 60
2020-07-21 22:00:00 17 30 Sur 45 Sudeste 0 -- -- 57
2020-07-21 21:00:00 17.2 12 Sudeste 36 Sudeste 0 -- -- 62
2020-07-21 20:00:00 17.8 22 Sudeste 28 Sudeste 0 -- -- 57
2020-07-21 19:00:00 17.9 8 Sudeste 36 Sur 1.6 -- -- 59
2020-07-21 18:00:00 18.1 26 Sudeste 35 Sudeste 0.4 -- -- 62
2020-07-21 17:00:00 17.5 9 Nordeste 42 Sudeste 2.4 -- -- 59
2020-07-21 16:00:00 19.9 2 Sudeste 17 Sudeste 0 -- -- 82
2020-07-21 15:00:00 23.4 6 Este 14 Este 0 -- -- 52
2020-07-21 14:00:00 23.8 8 Noroeste 20 Norte 0 -- -- 60
2020-07-21 13:00:00 25.2 7 Norte 22 Sur 0 -- -- 37
2020-07-21 12:00:00 24.7 15 Sudeste 31 Sudeste 0 -- -- 35
2020-07-21 11:00:00 24 14 Sudeste 35 Sudeste 0 -- -- 34
2020-07-21 10:00:00 23.1 18 Sudeste 29 Sudeste 0 -- -- 34
2020-07-21 09:00:00 21.9 14 Sudeste 31 Sur 0 -- -- 33
2020-07-21 08:00:00 22.2 20 Sudeste 27 Sudeste 0 -- -- 33
2020-07-21 07:00:00 21.5 22 Sur 32 Sudeste 0 -- -- 36
2020-07-21 06:00:00 21.5 19 Sudeste 28 Sur 0 -- -- 39
2020-07-21 05:00:00 21.1 24 Sudeste 33 Sur 0 -- -- 43
2020-07-21 04:00:00 20.1 25 Sudeste 32 Sudeste 0 -- -- 49
2020-07-21 03:00:00 20 26 Sudeste 35 Sur 0 -- -- 54
2020-07-21 02:00:00 19.6 29 Sur 37 Sur 0 -- -- 68
2020-07-21 01:00:00 18.9 31 Sudeste 42 Sudeste 0 -- -- 75
2020-07-21 00:00:00 19.5 28 Sudeste 38 Sudeste 0 -- -- 71
2020-07-20 23:00:00 20.4 23 Sudeste 32 Sudeste 0 -- -- 66
2020-07-20 22:00:00 20.2 24 Sudeste 30 Sudeste 0 -- -- 71
2020-07-20 21:00:00 19.1 3 Noroeste 10 Noroeste 0 -- -- 83
2020-07-20 20:00:00 20.3 7 Noroeste 14 Noroeste 0 -- -- 77
2020-07-20 19:00:00 22.3 8 Nordeste 23 Este 0 -- -- 68
2020-07-20 18:00:00 21.1 12 Este 23 Este 0 -- -- 71
2020-07-20 17:00:00 22.9 9 Noroeste 22 Sudeste 0 -- -- 69
2020-07-20 16:00:00 21.7 4 Noroeste 10 Noroeste 0 -- -- 73
2020-07-20 15:00:00 20.9 5 Noroeste 11 Noroeste 0 -- -- 73
2020-07-20 14:00:00 19.6 5 Noroeste 13 Noroeste 0 -- -- 78
2020-07-20 13:00:00 20 7 Noroeste 17 Sudeste 0 -- -- 74
2020-07-20 12:00:00 22.8 13 Sudeste 29 Sur 0 -- -- 43
2020-07-20 11:00:00 22.9 12 Sur 25 Sur 0 -- -- 42
2020-07-20 10:00:00 21.9 17 Sudeste 27 Sudeste 0 -- -- 40
2020-07-20 09:00:00 20.4 21 Sudeste 37 Sur 0 -- -- 43
2020-07-20 08:00:00 19.2 28 Sudeste 41 Sudeste 0 -- -- 47
2020-07-20 07:00:00 19.5 27 Sudeste 38 Sur 0 -- -- 43
2020-07-20 06:00:00 19.7 23 Sur 43 Sudeste 0 -- -- 37
2020-07-20 05:00:00 19.6 30 Sur 40 Sur 0 -- -- 41
2020-07-20 04:00:00 19.8 15 Sudeste 25 Sur 0 -- -- 43
2020-07-20 03:00:00 19.6 18 Sudeste 29 Sudeste 0 -- -- 43
2020-07-20 02:00:00 19.5 28 Sudeste 33 Sudeste 0 -- -- 42
2020-07-20 01:00:00 19 20 Sudeste 28 Sudeste 0 -- -- 44
2020-07-20 00:00:00 20.2 18 Sudeste 33 Sudeste 0 -- -- 47
2020-07-19 23:00:00 20 24 Sudeste 41 Sudeste 0 -- -- 48
2020-07-19 22:00:00 20.4 24 Sudeste 39 Sudeste 0 -- -- 54
2020-07-19 21:00:00 22.1 12 Sudeste 25 Sudeste 0 -- -- 48
2020-07-19 20:00:00 23.3 12 Sudeste 20 Sudeste 0 -- -- 42
2020-07-19 19:00:00 24 9 Sudeste 27 Este 0 -- -- 41
2020-07-19 18:00:00 22.7 16 Este 23 Este 0 -- -- 49
2020-07-19 17:00:00 23 11 Este 23 Este 0 -- -- 46
2020-07-19 16:00:00 23.8 11 Sudeste 19 Sudeste 0 -- -- 52
2020-07-19 15:00:00 24.6 5 Noroeste 16 Noroeste 0 -- -- 44
2020-07-19 14:00:00 24.1 10 Noroeste 17 Noroeste 0 -- -- 34
2020-07-19 13:00:00 23.6 5 Noroeste 12 Noroeste 0 -- -- 39
2020-07-19 12:00:00 23.1 5 Noroeste 9 Noroeste 0 -- -- 37
2020-07-19 11:00:00 23.9 2 Nordeste 6 Este 0 -- -- 31
2020-07-19 10:00:00 21.1 5 Este 14 Este 0 -- -- 42
2020-07-19 09:00:00 17.4 10 Este 13 Este 0 -- -- 50
2020-07-19 08:00:00 17.7 5 Sur 10 Sudeste 0 -- -- 50
2020-07-19 07:00:00 17 4 Sudeste 10 Sudeste 0 -- -- 46
2020-07-19 06:00:00 17.3 3 Este 22 Sudoeste 0 -- -- 38
2020-07-19 05:00:00 18.1 12 Sudoeste 20 Sudoeste 0 -- -- 33
2020-07-19 04:00:00 18.5 6 Sudoeste 27 Noroeste 0 -- -- 34
2020-07-19 03:00:00 17.4 5 Sudeste 22 Nordeste 0 -- -- 43
2020-07-19 02:00:00 16.9 6 Sur 14 Sur 0 -- -- 47
2020-07-19 01:00:00 16.8 7 Sur 13 Sur 0 -- -- 54
2020-07-19 00:00:00 16 4 Sudeste 15 Este 0 -- -- 64
2020-07-18 23:00:00 16.6 9 Este 17 Este 0 -- -- 61
2020-07-18 22:00:00 16.9 13 Este 17 Este 0 -- -- 63
2020-07-18 21:00:00 21.5 3 Sudoeste 12 Nordeste 0 -- -- 47
2020-07-18 20:00:00 21.4 9 Noroeste 13 Noroeste 0 -- -- 51
2020-07-18 19:00:00 21.5 9 Noroeste 15 Oeste 0 -- -- 51
2020-07-18 18:00:00 21.5 8 Noroeste 15 Noroeste 0 -- -- 55
2020-07-18 17:00:00 21.3 8 Noroeste 15 Noroeste 0 -- -- 61
2020-07-18 16:00:00 21.1 8 Noroeste 14 Noroeste 0 -- -- 65
2020-07-18 15:00:00 20.2 7 Noroeste 14 Noroeste 0 -- -- 71
2020-07-18 14:00:00 19.6 4 Noroeste 12 Noroeste 0 -- -- 61
2020-07-18 13:00:00 18.4 5 Noroeste 9 Norte 0 -- -- 59
2020-07-18 12:00:00 18 4 Noroeste 6 Noroeste 0 -- -- 58
2020-07-18 11:00:00 20 0 Calma 4 Norte 0 -- -- 31
2020-07-18 10:00:00 17.7 3 Nordeste 5 Este 0 -- -- 37
2020-07-18 09:00:00 12.3 0 Calma 9 Sudeste 0 -- -- 52
2020-07-18 08:00:00 11.3 3 Sudeste 22 Este 0 -- -- 59
2020-07-18 07:00:00 10.2 5 Noroeste 24 Este 0 -- -- 71
2020-07-18 06:00:00 9.6 4 Sudeste 9 Sudeste 0 -- -- 63
2020-07-18 05:00:00 10 6 Nordeste 23 Este 0 -- -- 70
2020-07-18 04:00:00 11.9 13 Este 23 Este 0 -- -- 70
2020-07-18 03:00:00 13.4 10 Este 21 Sudeste 0 -- -- 46
2020-07-18 02:00:00 7.5 0 Calma 15 Sudeste 0 -- -- 93
2020-07-18 01:00:00 11.1 9 Sudeste 18 Sudeste 0 -- -- 74
2020-07-18 00:00:00 7.7 3 Norte 13 Sudeste 0 -- -- 93
2020-07-17 23:00:00 9 4 Sudeste 7 Sudeste 0 -- -- 94
2020-07-17 22:00:00 10 2 Nordeste 7 Noroeste 0 -- -- 89
2020-07-17 21:00:00 12.3 6 Noroeste 12 Noroeste 0 -- -- 84
2020-07-17 20:00:00 13.9 7 Noroeste 18 Noroeste 0 -- -- 77
2020-07-17 19:00:00 14.7 12 Noroeste 21 Noroeste 0 -- -- 74
2020-07-17 18:00:00 15.5 12 Noroeste 26 Noroeste 0 -- -- 68
2020-07-17 17:00:00 15.6 9 Noroeste 22 Noroeste 0 -- -- 67
2020-07-17 16:00:00 15.5 12 Noroeste 19 Noroeste 0 -- -- 68
2020-07-17 15:00:00 15.1 8 Noroeste 16 Noroeste 0 -- -- 76
2020-07-17 14:00:00 14.6 8 Noroeste 15 Noroeste 0 -- -- 75
2020-07-17 13:00:00 13.8 6 Noroeste 11 Noroeste 0 -- -- 78
2020-07-17 12:00:00 13.1 4 Noroeste 11 Noroeste 0 -- -- 80
2020-07-17 11:00:00 15.4 8 Sudeste 19 Sudeste 0 -- -- 45
2020-07-17 10:00:00 15.2 9 Sudeste 15 Sudeste 0 -- -- 41
2020-07-17 09:00:00 11.5 8 Sudeste 15 Sudeste 0 -- -- 55
2020-07-17 08:00:00 11.2 12 Sudeste 15 Sudeste 0 -- -- 55
2020-07-17 07:00:00 10.7 12 Sudeste 17 Sudeste 0 -- -- 61
2020-07-17 06:00:00 10.4 12 Sudeste 19 Sudeste 0 -- -- 68
2020-07-17 05:00:00 10.8 10 Sudeste 17 Sudeste 0 -- -- 68
2020-07-17 04:00:00 11.1 13 Sudeste 16 Este 0 -- -- 68
2020-07-17 03:00:00 11.9 13 Sudeste 19 Sudeste 0 -- -- 59
2020-07-17 02:00:00 11.9 13 Este 18 Este 0 -- -- 48
2020-07-17 01:00:00 11.3 12 Este 15 Este 0 -- -- 40
2020-07-17 00:00:00 12.2 4 Sudeste 10 Sudeste 0 -- -- 35
2020-07-16 23:00:00 11.9 5 Norte 11 Sudeste 0 -- -- 42
2020-07-16 22:00:00 12.7 4 Sudeste 7 Noroeste 0 -- -- 59
2020-07-16 21:00:00 14.4 4 Noroeste 12 Noroeste 0 -- -- 74
2020-07-16 20:00:00 15.8 8 Noroeste 13 Noroeste 0 -- -- 66
2020-07-16 19:00:00 16.4 8 Noroeste 15 Noroeste 0 -- -- 65
2020-07-16 18:00:00 16.6 8 Noroeste 18 Noroeste 0 -- -- 64
2020-07-16 17:00:00 17.1 9 Noroeste 19 Noroeste 0 -- -- 66
2020-07-16 16:00:00 17.4 12 Noroeste 21 Noroeste 0 -- -- 69
2020-07-16 15:00:00 17.2 8 Noroeste 14 Noroeste 0 -- -- 74
2020-07-16 14:00:00 16.3 6 Noroeste 13 Norte 0 -- -- 74
2020-07-16 13:00:00 15.1 8 Noroeste 12 Noroeste 0 -- -- 76
2020-07-16 12:00:00 15.3 6 Noroeste 17 Este 0 -- -- 61
2020-07-16 11:00:00 16.2 3 Noroeste 10 Nordeste 0 -- -- 52
2020-07-16 10:00:00 14.4 4 Norte 13 Este 0 -- -- 49
2020-07-16 09:00:00 11.8 0 Calma 14 Este 0 -- -- 52
2020-07-16 08:00:00 12.8 8 Este 23 Este 0 -- -- 74
2020-07-16 07:00:00 11.9 7 Este 18 Este 0 -- -- 68
2020-07-16 06:00:00 10.6 13 Este 18 Este 0 -- -- 37
2020-07-16 05:00:00 10.3 15 Este 19 Este 0 -- -- 26
2020-07-16 04:00:00 11.5 16 Sudeste 26 Sudeste 0 -- -- 23
2020-07-16 03:00:00 11.6 12 Sudeste 17 Sudeste 0 -- -- 29
2020-07-16 02:00:00 10.6 5 Nordeste 14 Sudeste 0 -- -- 37
2020-07-16 01:00:00 9.3 5 Este 18 Sudeste 0 -- -- 47
2020-07-16 00:00:00 9.4 5 Este 15 Este 0 -- -- 48
2020-07-15 23:00:00 10.3 8 Este 17 Sudeste 0 -- -- 47
2020-07-15 22:00:00 11 8 Sudeste 14 Este 0 -- -- 55
2020-07-15 21:00:00 12.1 6 Noroeste 22 Noroeste 0 -- -- 73
2020-07-15 20:00:00 13.3 11 Noroeste 20 Noroeste 0 -- -- 71
2020-07-15 19:00:00 13.8 10 Noroeste 18 Noroeste 0 -- -- 71
2020-07-15 18:00:00 13.9 10 Noroeste 18 Noroeste 0 -- -- 74
2020-07-15 17:00:00 13.7 10 Noroeste 17 Noroeste 0 -- -- 77
2020-07-15 16:00:00 11.5 10 Noroeste 19 Noroeste 0 -- -- 88
2020-07-15 15:00:00 10.4 10 Noroeste 18 Noroeste 0 -- -- 94
2020-07-15 14:00:00 11.3 9 Noroeste 20 Noroeste 0 -- -- 82
2020-07-15 13:00:00 10.6 9 Noroeste 19 Noroeste 0 -- -- 90
2020-07-15 12:00:00 9.7 7 Noroeste 19 Noroeste 0 -- -- 96
2020-07-15 11:00:00 9 5 Noroeste 12 Noroeste 0 -- -- 96
2020-07-15 10:00:00 9 8 Noroeste 18 Oeste 0 -- -- 89
2020-07-15 09:00:00 9.6 3 Oeste 15 Sur 0 -- -- 87
2020-07-15 08:00:00 6.7 4 Sur 15 Sur 0 -- -- 86
2020-07-15 07:00:00 5.4 5 Sudeste 10 Norte 0 -- -- 64
2020-07-15 06:00:00 6.5 2 Sudeste 9 Este 0 -- -- 62
2020-07-15 05:00:00 5.8 3 Este 11 Este 0 -- -- 41
2020-07-15 04:00:00 6 6 Sudeste 12 Sudeste 0 -- -- 29
2020-07-15 03:00:00 5.4 4 Este 21 Este 0 -- -- 35
2020-07-15 02:00:00 6.6 5 Nordeste 24 Sudeste 0 -- -- 28
2020-07-15 01:00:00 7.6 4 Nordeste 21 Este 0 -- -- 21
2020-07-15 00:00:00 7.7 3 Nordeste 16 Este 0 -- -- 31
2020-07-14 23:00:00 8.6 9 Este 15 Este 0 -- -- 32
2020-07-14 22:00:00 9.3 4 Sur 10 Noroeste 0 -- -- 72
2020-07-14 21:00:00 11.4 10 Noroeste 30 Noroeste 0 -- -- 73
2020-07-14 20:00:00 13.1 11 Noroeste 24 Noroeste 0 -- -- 67
2020-07-14 19:00:00 13.6 17 Noroeste 33 Noroeste 0 -- -- 66
2020-07-14 18:00:00 15 15 Noroeste 30 Noroeste 0 -- -- 57
2020-07-14 17:00:00 15.1 15 Noroeste 24 Noroeste 0 -- -- 63
2020-07-14 16:00:00 15.3 16 Noroeste 26 Noroeste 0 -- -- 52
2020-07-14 15:00:00 15 6 Noroeste 18 Noroeste 0 -- -- 48
2020-07-14 14:00:00 15.5 4 Sudoeste 15 Noroeste 0 -- -- 47
2020-07-14 13:00:00 13.4 6 Noroeste 18 Sudeste 0 -- -- 53
2020-07-14 12:00:00 13.8 3 Sur 11 Noroeste 0 -- -- 39
2020-07-14 11:00:00 12.1 6 Noroeste 12 Sur 0 -- -- 38
2020-07-14 10:00:00 11.8 3 Este 12 Sudeste 0 -- -- 32
2020-07-14 09:00:00 9.2 3 Este 11 Este 0 -- -- 34
2020-07-14 08:00:00 8.3 0 Calma 9 Este 0 -- -- 39
2020-07-14 07:00:00 6.7 2 Este 17 Este 0 -- -- 43
2020-07-14 06:00:00 7.7 5 Nordeste 21 Este 0 -- -- 28
2020-07-14 05:00:00 9.6 14 Este 20 Este 0 -- -- 21
2020-07-14 04:00:00 10.1 13 Sudeste 19 Este 0 -- -- 13
2020-07-14 03:00:00 8.1 5 Este 17 Sudeste 0 -- -- 30
2020-07-14 02:00:00 9.1 4 Sudeste 21 Sudeste 0 -- -- 29
2020-07-14 01:00:00 8.8 17 Sudeste 26 Sudeste 0 -- -- 37
2020-07-14 00:00:00 8 6 Este 15 Este 0 -- -- 41
2020-07-13 23:00:00 8.3 4 Sudeste 6 Sudoeste 0 -- -- 77
2020-07-13 22:00:00 10.4 4 Oeste 20 Oeste 0 -- -- 73
2020-07-13 21:00:00 13.1 11 Noroeste 22 Noroeste 0 -- -- 62
2020-07-13 20:00:00 14.6 11 Noroeste 26 Noroeste 0 -- -- 61
2020-07-13 19:00:00 15.5 14 Noroeste 24 Noroeste 0 -- -- 63
2020-07-13 18:00:00 15.6 15 Noroeste 26 Oeste 0 -- -- 70
2020-07-13 17:00:00 16.3 13 Noroeste 24 Noroeste 0 -- -- 70
2020-07-13 16:00:00 16.4 14 Noroeste 23 Noroeste 0 -- -- 69
2020-07-13 15:00:00 16.1 10 Noroeste 19 Noroeste 0 -- -- 72
2020-07-13 14:00:00 15.2 9 Noroeste 16 Noroeste 0 -- -- 74
2020-07-13 13:00:00 14.3 7 Noroeste 13 Noroeste 0 -- -- 76
2020-07-13 12:00:00 14 5 Noroeste 14 Sudeste 0 -- -- 81
2020-07-13 11:00:00 13.6 4 Noroeste 13 Sudeste 0 -- -- 78
2020-07-13 10:00:00 11.7 5 Nordeste 13 Este 0 -- -- 92
2020-07-13 09:00:00 9.7 5 Este 9 Sudeste 0 -- -- 99
2020-07-13 08:00:00 8.8 2 Este 9 Sudeste 0.2 -- -- 100
2020-07-13 07:00:00 9.1 5 Sudeste 7 Este 0 -- -- 100
2020-07-13 06:00:00 9.5 0 Calma 6 Este 0 -- -- 100
2020-07-13 05:00:00 9.8 3 Nordeste 7 Sudeste 0 -- -- 100
2020-07-13 04:00:00 9.9 3 Sudeste 9 Sudeste 0 -- -- 100
2020-07-13 03:00:00 10.4 3 Sudeste 14 Sur 0 -- -- 100
2020-07-13 02:00:00 11.7 10 Sudeste 20 Sur 0 -- -- 92
2020-07-13 01:00:00 10.4 4 Sudeste 19 Este 0 -- -- 96
2020-07-13 00:00:00 12 11 Este 15 Este 0 -- -- 83
2020-07-12 23:00:00 12.3 6 Sudeste 13 Noroeste 0 -- -- 83
2020-07-12 22:00:00 12.6 4 Norte 31 Sudeste 0 -- -- 85
2020-07-12 21:00:00 14.8 28 Sur 44 Sudeste 0 -- -- 67
2020-07-12 20:00:00 13.3 36 Sur 59 Sur 4.4 -- -- 77
2020-07-12 19:00:00 12.7 32 Sur 59 Sur 3.4 -- -- 80
2020-07-12 18:00:00 17.8 9 Sudeste 24 Este 0.4 -- -- 79
2020-07-12 17:00:00 19 7 Noroeste 15 Norte 0 -- -- 85
2020-07-12 16:00:00 19.5 7 Noroeste 14 Noroeste 0 -- -- 82
2020-07-12 15:00:00 19.4 6 Noroeste 14 Noroeste 0 -- -- 85
2020-07-12 14:00:00 17.2 5 Norte 12 Noroeste 0 -- -- 87
2020-07-12 13:00:00 15.5 4 Noroeste 49 Sur 0 -- -- 90
2020-07-12 12:00:00 16.4 33 Sudeste 52 Sur 0 -- -- 75
2020-07-12 11:00:00 17.7 21 Sur 41 Sudeste 0.2 -- -- 69
2020-07-12 10:00:00 13.2 6 Sudeste 14 Sur 0 -- -- 100
2020-07-12 09:00:00 10.9 0 Calma 9 Noroeste 0 -- -- 100
2020-07-12 08:00:00 12.7 3 Norte 27 Sudeste 0 -- -- 100
2020-07-12 07:00:00 10.3 2 Sudeste 17 Noroeste 1 -- -- 100
2020-07-12 06:00:00 10.5 6 Noroeste 27 Noroeste 0 -- -- 100
2020-07-12 05:00:00 18.2 21 Sur 37 Sudeste 0 -- -- 66
2020-07-12 04:00:00 18.1 30 Sudeste 45 Sur 0 -- -- 68
2020-07-12 03:00:00 17.9 31 Sudeste 44 Sudeste 0 -- -- 68
2020-07-12 02:00:00 18.3 28 Sudeste 39 Sudeste 0 -- -- 64
2020-07-12 01:00:00 19 21 Sudeste 32 Sudeste 0 -- -- 63
2020-07-12 00:00:00 18.8 22 Sudeste 31 Sur 0 -- -- 66
2020-07-11 23:00:00 17.2 26 Sur 31 Sudeste 0 -- -- 78
2020-07-11 22:00:00 16.4 21 Este 31 Este 0 -- -- 82
2020-07-11 21:00:00 16.3 6 Noroeste 10 Noroeste 0 -- -- 82
2020-07-11 20:00:00 17.5 5 Noroeste 10 Noroeste 0 -- -- 79
2020-07-11 19:00:00 17.8 7 Noroeste 11 Noroeste 0 -- -- 80
2020-07-11 18:00:00 17.4 6 Noroeste 12 Noroeste 0 -- -- 81
2020-07-11 17:00:00 17.7 5 Noroeste 14 Noroeste 0 -- -- 82
2020-07-11 16:00:00 16.6 6 Noroeste 14 Noroeste 0 -- -- 89
2020-07-11 15:00:00 14 5 Noroeste 11 Noroeste 0 -- -- 99
2020-07-11 14:00:00 12.4 4 Noroeste 9 Noroeste 0 -- -- 100
2020-07-11 13:00:00 12.6 3 Noroeste 10 Noroeste 0 -- -- 97
2020-07-11 12:00:00 13.6 3 Norte 6 Noroeste 0 -- -- 93
2020-07-11 11:00:00 14.2 2 Norte 6 Noroeste 0 -- -- 92
2020-07-11 10:00:00 12.2 2 Norte 7 Noroeste 0 -- -- 97
2020-07-11 09:00:00 9.7 2 Este 6 Noroeste 0 -- -- 100
2020-07-11 08:00:00 7.4 3 Sudeste 6 Noroeste 0 -- -- 100
2020-07-11 07:00:00 7.4 2 Sur 4 Sudeste 0 -- -- 100
2020-07-11 06:00:00 7.8 0 Calma 5 Noroeste 0 -- -- 100
2020-07-11 05:00:00 8.2 2 Nordeste 6 Norte 0.2 -- -- 100
2020-07-11 04:00:00 8.9 0 Calma 6 Noroeste 0.2 -- -- 100
2020-07-11 03:00:00 9.3 3 Sudoeste 7 Noroeste 0 -- -- 100
2020-07-11 02:00:00 9.5 2 Noroeste 6 Noroeste 0 -- -- 100
2020-07-11 01:00:00 9.7 3 Norte 6 Noroeste 0.2 -- -- 100
2020-07-11 00:00:00 10 4 Noroeste 8 Noroeste 0 -- -- 100
2020-07-10 23:00:00 10.3 3 Noroeste 8 Noroeste 0 -- -- 100
2020-07-10 22:00:00 10.6 2 Noroeste 9 Noroeste 0 -- -- 100
2020-07-10 21:00:00 10.8 4 Noroeste 9 Noroeste 0 -- -- 100
2020-07-10 20:00:00 10.9 3 Noroeste 10 Noroeste 0 -- -- 100
2020-07-10 19:00:00 11.8 4 Noroeste 9 Norte 0 -- -- 100
2020-07-10 18:00:00 12.8 3 Norte 9 Noroeste 0 -- -- 100
2020-07-10 17:00:00 14 6 Noroeste 15 Noroeste 0 -- -- 96
2020-07-10 16:00:00 15.1 8 Noroeste 16 Noroeste 0 -- -- 92
2020-07-10 15:00:00 15 8 Noroeste 15 Noroeste 0 -- -- 90
2020-07-10 14:00:00 13 4 Norte 12 Noroeste 0 -- -- 97
2020-07-10 13:00:00 14 3 Noroeste 14 Noroeste 0 -- -- 95
2020-07-10 12:00:00 14.1 4 Sudeste 11 Noroeste 0 -- -- 97
2020-07-10 11:00:00 15 3 Norte 15 Noroeste 0 -- -- 85
2020-07-10 10:00:00 16 3 Sur 8 Noroeste 0 -- -- 66
2020-07-10 09:00:00 14.1 3 Este 11 Este 0 -- -- 73
2020-07-10 08:00:00 12.8 5 Sudeste 15 Sudeste 0 -- -- 83
2020-07-10 07:00:00 13.5 9 Sudeste 13 Sudeste 0 -- -- 74
2020-07-10 06:00:00 12.2 4 Sudeste 14 Sudeste 0 -- -- 84
2020-07-10 05:00:00 9.7 3 Nordeste 18 Sudeste 0 -- -- 98
2020-07-10 04:00:00 13.1 8 Este 17 Este 0 -- -- 71
2020-07-10 03:00:00 11.6 4 Sudeste 21 Este 0 -- -- 78
2020-07-10 02:00:00 13.8 10 Sudeste 19 Sudeste 0 -- -- 64
2020-07-10 01:00:00 13.5 8 Sudeste 31 Sur 0 -- -- 65
2020-07-10 00:00:00 14.2 8 Este 34 Sur 0 -- -- 63
2020-07-09 23:00:00 17.3 13 Sur 31 Sudeste 0 -- -- 48
2020-07-09 22:00:00 16.6 10 Este 28 Sudeste 0 -- -- 48
2020-07-09 21:00:00 16.2 8 Sudeste 19 Este 0 -- -- 50
2020-07-09 20:00:00 17.6 10 Sur 39 Sur 0 -- -- 46
2020-07-09 19:00:00 16.6 25 Sur 57 Sur 11.4 -- -- 50
2020-07-09 18:00:00 10.2 25 Sur 68 Sudoeste 11.8 -- -- 83
2020-07-09 17:00:00 21.3 11 Sudeste 34 Sur 0 -- -- 61
2020-07-09 16:00:00 19.6 10 Sur 22 Sudeste 0 -- -- 72
2020-07-09 15:00:00 20.4 8 Noroeste 18 Este 0 -- -- 70
2020-07-09 14:00:00 22 8 Este 19 Nordeste 0 -- -- 57
2020-07-09 13:00:00 21.8 5 Norte 18 Sudeste 0 -- -- 51
2020-07-09 12:00:00 21.2 4 Este 18 Este 0 -- -- 45
2020-07-09 11:00:00 20.4 4 Norte 16 Sudeste 0 -- -- 48
2020-07-09 10:00:00 20.3 7 Oeste 14 Sudoeste 0 -- -- 43
2020-07-09 09:00:00 19.1 6 Este 23 Sudeste 0 -- -- 48
2020-07-09 08:00:00 17 21 Sudeste 27 Sudeste 0 -- -- 55
2020-07-09 07:00:00 17.5 17 Sudeste 31 Sudeste 0 -- -- 53
2020-07-09 06:00:00 17.4 19 Sudeste 29 Sudeste 0 -- -- 53
2020-07-09 05:00:00 17.2 18 Este 27 Este 0 -- -- 54
2020-07-09 04:00:00 16.4 17 Sudeste 20 Sudeste 0 -- -- 57
2020-07-09 03:00:00 15.7 8 Sudeste 20 Este 0 -- -- 61
2020-07-09 02:00:00 16.8 11 Sudoeste 24 Sudoeste 0 -- -- 54
2020-07-09 01:00:00 16.6 17 Sudoeste 37 Sudoeste 0 -- -- 56
2020-07-09 00:00:00 17 8 Sudoeste 18 Sudeste 0 -- -- 57
2020-07-08 23:00:00 18.8 6 Oeste 26 Sur 0 -- -- 50
2020-07-08 22:00:00 17.3 4 Sudeste 40 Norte 0.4 -- -- 63
2020-07-08 21:00:00 18.1 8 Norte 52 Sur 0.2 -- -- 76
2020-07-08 20:00:00 21.1 6 Nordeste 18 Este 0 -- -- 56
2020-07-08 19:00:00 21.5 5 Norte 20 Oeste 0 -- -- 70
2020-07-08 18:00:00 24.4 4 Nordeste 24 Sudeste 0 -- -- 40
2020-07-08 17:00:00 24.5 6 Este 21 Sudeste 0 -- -- 35
2020-07-08 16:00:00 25.4 11 Este 24 Nordeste 0 -- -- 28
2020-07-08 15:00:00 25.7 10 Nordeste 23 Este 0 -- -- 30
2020-07-08 14:00:00 23.9 5 Norte 15 Oeste 0 -- -- 31
2020-07-08 13:00:00 24.6 8 Nordeste 27 Sudeste 0 -- -- 38
2020-07-08 12:00:00 23.8 14 Sudeste 34 Sudeste 0 -- -- 29
2020-07-08 11:00:00 22.4 14 Este 34 Sudeste 0 -- -- 38
2020-07-08 10:00:00 22.8 21 Sudeste 33 Sudeste 0 -- -- 36
2020-07-08 09:00:00 21 26 Sudeste 39 Sudeste 0 -- -- 43
2020-07-08 08:00:00 20 22 Sudeste 27 Sudeste 0 -- -- 44
2020-07-08 07:00:00 19.8 14 Sudeste 25 Sur 0 -- -- 44
2020-07-08 06:00:00 19.3 12 Sur 22 Este 0 -- -- 46
2020-07-08 05:00:00 18.9 12 Sur 20 Este 0 -- -- 46
2020-07-08 04:00:00 18.6 9 Sudeste 17 Sur 0 -- -- 48
2020-07-08 03:00:00 19.1 10 Sur 18 Sur 0 -- -- 45
2020-07-08 02:00:00 18.4 11 Sur 20 Sudeste 0 -- -- 42
2020-07-08 01:00:00 17.4 9 Sur 15 Este 0 -- -- 50
2020-07-08 00:00:00 17.4 6 Sudeste 13 Este 0 -- -- 60